| time (UTC) | temp F | wind direction | speed MPH | gust MPH | rain 1hr in | rain 24hr in | rain mn in | humidity % | barometer mb |
| 20260506232200 | 63 | 154 | 1.0 | 1.0 | 0.00 | 1.13 | 1.13 | 86 | 1014.1 |
| 20260506231658 | 63 | 164 | 0.0 | 1.0 | 0.00 | 1.13 | 1.13 | 87 | 1013.9 |
| 20260506231156 | 63 | 41 | 2.0 | 2.0 | 0.00 | 1.13 | 1.13 | 86 | 1014.3 |
| 20260506230652 | 63 | 108 | 2.0 | 2.0 | 0.00 | 1.13 | 1.13 | 86 | 1014.5 |
| 20260506230149 | 63 | 108 | 0.0 | 1.0 | 0.00 | 1.13 | 1.13 | 86 | 1014.3 |
| 20260506225646 | 63 | 142 | 0.0 | 0.0 | 0.00 | 1.13 | 1.13 | 87 | 1014.5 |
| 20260506225143 | 63 | 164 | 0.0 | 1.0 | 0.00 | 1.13 | 1.13 | 87 | 1014.2 |
| 20260506224639 | 63 | 125 | 0.0 | 0.0 | 0.00 | 1.13 | 1.13 | 87 | 1014.3 |
| 20260506224136 | 63 | 163 | 0.0 | 0.0 | 0.00 | 1.13 | 1.13 | 87 | 1014.4 |
| 20260506223632 | 63 | 171 | 0.0 | 0.0 | 0.00 | 1.13 | 1.13 | 86 | 1014.2 |
| 20260506223128 | 63 | 99 | 1.0 | 2.0 | 0.00 | 1.13 | 1.13 | 85 | 1014.2 |
| 20260506222625 | 63 | 152 | 2.0 | 2.0 | 0.00 | 1.13 | 1.13 | 85 | 1014.4 |
| 20260506222121 | 63 | 108 | 1.0 | 1.0 | 0.00 | 1.13 | 1.13 | 85 | 1014.0 |
| 20260506221619 | 63 | 111 | 0.0 | 1.0 | 0.00 | 1.13 | 1.13 | 86 | 1014.2 |
| 20260506221117 | 63 | 144 | 1.0 | 1.0 | 0.00 | 1.13 | 1.13 | 87 | 1013.8 |
| 20260506220613 | 62 | 158 | 0.0 | 0.0 | 0.00 | 1.13 | 1.13 | 87 | 1013.8 |
| 20260506220109 | 62 | 128 | 1.0 | 2.0 | 0.00 | 1.13 | 1.13 | 87 | 1013.9 |
| 20260506215606 | 62 | 158 | 2.0 | 2.0 | 0.00 | 1.13 | 1.13 | 86 | 1014.2 |
| 20260506215101 | 62 | 70 | 1.0 | 2.0 | 0.00 | 1.13 | 1.13 | 88 | 1014.2 |
| 20260506214558 | 61 | 149 | 1.0 | 1.0 | 0.00 | 1.13 | 1.13 | 88 | 1014.0 |
| 20260506214056 | 61 | 30 | 2.0 | 2.0 | 0.00 | 1.13 | 1.13 | 87 | 1014.3 |
| 20260506213554 | 61 | 270 | 1.0 | 2.0 | 0.00 | 1.13 | 1.13 | 88 | 1014.3 |
| 20260506213051 | 61 | 158 | 0.0 | 0.0 | 0.00 | 1.13 | 1.13 | 89 | 1014.4 |
| 20260506212547 | 61 | 120 | 1.0 | 3.0 | 0.00 | 1.13 | 1.13 | 88 | 1014.6 |
| 20260506212042 | 61 | 138 | 1.0 | 1.0 | 0.00 | 1.13 | 1.13 | 89 | 1014.3 |
| 20260506211538 | 61 | 73 | 1.0 | 1.0 | 0.00 | 1.13 | 1.13 | 89 | 1014.5 |
| 20260506211036 | 61 | 162 | 1.0 | 2.0 | 0.00 | 1.13 | 1.13 | 89 | 1014.5 |
| 20260506210532 | 61 | 237 | 4.0 | 7.0 | 0.00 | 1.13 | 1.13 | 89 | 1014.3 |
| 20260506210029 | 61 | 342 | 4.0 | 6.0 | 0.00 | 1.13 | 1.13 | 89 | 1014.7 |
| 20260506205526 | 61 | 130 | 1.0 | 1.0 | 0.00 | 1.13 | 1.13 | 89 | 1014.6 |
| 20260506205021 | 60 | 108 | 1.0 | 2.0 | 0.00 | 1.13 | 1.13 | 89 | 1014.4 |
| 20260506204519 | 60 | 123 | 1.0 | 1.0 | 0.00 | 1.13 | 1.13 | 90 | 1014.6 |
| 20260506204016 | 60 | 321 | 1.0 | 1.0 | 0.00 | 1.13 | 1.13 | 90 | 1014.8 |
| 20260506203514 | 60 | 185 | 1.0 | 1.0 | 0.00 | 1.13 | 1.13 | 90 | 1014.9 |
| 20260506203010 | 60 | 148 | 1.0 | 2.0 | 0.00 | 1.13 | 1.13 | 91 | 1015.1 |
| 20260506202508 | 60 | 44 | 2.0 | 2.0 | 0.00 | 1.13 | 1.13 | 90 | 1014.9 |
| 20260506202003 | 60 | 165 | 0.0 | 0.0 | 0.00 | 1.13 | 1.13 | 91 | 1014.9 |
| 20260506201502 | 60 | 82 | 1.0 | 2.0 | 0.00 | 1.13 | 1.13 | 90 | 1014.5 |
| 20260506200958 | 60 | 143 | 1.0 | 1.0 | 0.00 | 1.13 | 1.13 | 90 | 1014.7 |
| 20260506200454 | 60 | 128 | 1.0 | 2.0 | 0.00 | 1.13 | 1.13 | 90 | 1014.8 |
| 20260506195951 | 60 | 66 | 1.0 | 1.0 | 0.00 | 1.13 | 1.13 | 90 | 1015.0 |
| 20260506195448 | 60 | 141 | 0.0 | 1.0 | 0.00 | 1.13 | 1.13 | 91 | 1015.0 |
| 20260506194944 | 60 | 358 | 2.0 | 2.0 | 0.00 | 1.13 | 1.13 | 91 | 1015.0 |
| 20260506194442 | 60 | 295 | 2.0 | 3.0 | 0.00 | 1.13 | 1.13 | 91 | 1014.9 |
| 20260506193938 | 60 | 50 | 2.0 | 2.0 | 0.00 | 1.13 | 1.13 | 90 | 1015.0 |
| 20260506193436 | 60 | 189 | 2.0 | 3.0 | 0.00 | 1.13 | 1.13 | 90 | 1014.9 |
| 20260506192932 | 60 | 122 | 2.0 | 2.0 | 0.00 | 1.13 | 1.13 | 90 | 1014.6 |
| 20260506192429 | 60 | 88 | 2.0 | 3.0 | 0.00 | 1.13 | 1.13 | 90 | 1014.9 |
| 20260506191926 | 60 | 126 | 0.0 | 1.0 | 0.00 | 1.13 | 1.13 | 91 | 1014.7 |
| 20260506191422 | 60 | 150 | 0.0 | 1.0 | 0.00 | 1.13 | 1.13 | 91 | 1014.7 |
| 20260506190919 | 60 | 135 | 1.0 | 1.0 | 0.00 | 1.13 | 1.13 | 91 | 1014.9 |
| 20260506190416 | 60 | 14 | 2.0 | 2.0 | 0.00 | 1.13 | 1.13 | 92 | 1014.9 |
| 20260506185913 | 60 | 36 | 2.0 | 2.0 | 0.00 | 1.13 | 1.13 | 92 | 1014.8 |
| 20260506185410 | 60 | 84 | 2.0 | 2.0 | 0.00 | 1.13 | 1.13 | 93 | 1015.1 |
| 20260506184907 | 60 | 309 | 2.0 | 3.0 | 0.00 | 1.13 | 1.13 | 93 | 1015.2 |
| 20260506184404 | 59 | 84 | 1.0 | 1.0 | 0.00 | 1.13 | 1.13 | 94 | 1015.2 |
| 20260506183901 | 59 | 224 | 2.0 | 2.0 | 0.00 | 1.13 | 1.13 | 95 | 1015.4 |
| 20260506183356 | 59 | 28 | 3.0 | 3.0 | 0.00 | 1.13 | 1.13 | 96 | 1014.9 |
| 20260506182854 | 59 | 168 | 0.0 | 0.0 | 0.00 | 1.13 | 1.13 | 96 | 1015.1 |
| 20260506182351 | 59 | 248 | 1.0 | 2.0 | 0.00 | 1.13 | 1.13 | 97 | 1015.2 |
| 20260506181848 | 60 | 39 | 3.0 | 3.0 | 0.00 | 1.13 | 1.13 | 98 | 1014.9 |
| 20260506181346 | 59 | 119 | 0.0 | 1.0 | 0.00 | 1.13 | 1.13 | 98 | 1015.0 |
| 20260506180843 | 59 | 162 | 0.0 | 0.0 | 0.00 | 1.13 | 1.13 | 98 | 1015.1 |
| 20260506180339 | 59 | 104 | 0.0 | 0.0 | 0.00 | 1.13 | 1.13 | 98 | 1014.8 |
| 20260506175835 | 59 | 160 | 0.0 | 1.0 | 0.00 | 1.13 | 1.13 | 98 | 1015.0 |
| 20260506175332 | 60 | 123 | 2.0 | 3.0 | 0.00 | 1.13 | 1.13 | 97 | 1014.9 |
| 20260506174829 | 60 | 169 | 1.0 | 1.0 | 0.00 | 1.13 | 1.13 | 98 | 1014.7 |
| 20260506174327 | 60 | 104 | 4.0 | 6.0 | 0.00 | 1.13 | 1.13 | 97 | 1015.0 |
| 20260506173824 | 61 | 75 | 1.0 | 1.0 | 0.00 | 1.13 | 1.13 | 98 | 1014.7 |
| 20260506173321 | 60 | 92 | 2.0 | 3.0 | 0.00 | 1.13 | 1.13 | 98 | 1014.4 |
| 20260506172818 | 61 | 337 | 2.0 | 3.0 | 0.00 | 1.13 | 1.13 | 98 | 1014.5 |
| 20260506172314 | 61 | 11 | 3.0 | 3.0 | 0.00 | 1.13 | 1.13 | 98 | 1014.4 |
| 20260506171812 | 61 | 173 | 0.0 | 1.0 | 0.00 | 1.13 | 1.13 | 98 | 1014.3 |
| 20260506171309 | 61 | 173 | 0.0 | 0.0 | 0.00 | 1.13 | 1.13 | 99 | 1014.3 |
| 20260506170807 | 61 | 289 | 2.0 | 2.0 | 0.00 | 1.13 | 1.13 | 98 | 1014.3 |
| 20260506170302 | 61 | 161 | 0.0 | 1.0 | 0.00 | 1.13 | 1.13 | 99 | 1014.3 |
| 20260506165802 | 61 | 332 | 1.0 | 3.0 | 0.00 | 1.13 | 1.13 | 99 | 1014.1 |
| 20260506165259 | 61 | 293 | 1.0 | 2.0 | 0.00 | 1.13 | 1.13 | 99 | 1014.1 |
| 20260506164755 | 62 | 312 | 2.0 | 2.0 | 0.00 | 1.13 | 1.13 | 99 | 1014.0 |
| 20260506164252 | 62 | 180 | 0.0 | 1.0 | 0.00 | 1.13 | 1.13 | 99 | 1013.9 |
| 20260506163749 | 61 | 216 | 1.0 | 1.0 | 0.00 | 1.13 | 1.13 | 99 | 1013.9 |
| 20260506163244 | 62 | 235 | 2.0 | 2.0 | 0.05 | 1.13 | 1.13 | 99 | 1013.4 |
| 20260506162740 | 61 | 155 | 0.0 | 0.0 | 0.05 | 1.13 | 1.13 | 99 | 1012.6 |
| 20260506162238 | 62 | 150 | 2.0 | 2.0 | 0.00 | 1.12 | 1.12 | 99 | 1012.5 |
| 20260506161735 | 60 | 173 | 1.0 | 2.0 | 0.00 | 1.12 | 1.12 | 99 | 1012.6 |
| 20260506161232 | 58 | 163 | 1.0 | 1.0 | 0.00 | 1.12 | 1.12 | 99 | 1013.2 |
| 20260506160730 | 58 | 146 | 1.0 | 1.0 | 0.00 | 1.12 | 1.12 | 99 | 1013.6 |
| 20260506160226 | 59 | 154 | 1.0 | 1.0 | 0.00 | 1.12 | 1.12 | 99 | 1013.3 |
| 20260506155725 | 58 | 237 | 1.0 | 1.0 | 0.07 | 1.12 | 1.12 | 99 | 1013.3 |
| 20260506155221 | 59 | 122 | 0.0 | 1.0 | 0.07 | 1.12 | 1.12 | 99 | 1013.4 |
| 20260506153323 | 58 | 148 | 2.0 | 2.0 | 0.26 | 1.10 | 1.10 | 99 | 1014.5 |
| 20260506152820 | 58 | 175 | 0.0 | 0.0 | 0.19 | 1.08 | 1.08 | 99 | 1014.9 |
| 20260506152317 | 58 | 61 | 1.0 | 2.0 | 0.05 | 1.06 | 1.06 | 99 | 1014.8 |
| 20260506151816 | 58 | 144 | 1.0 | 1.0 | 0.00 | 1.05 | 1.05 | 99 | 1014.6 |
| 20260506151312 | 59 | 171 | 0.0 | 0.0 | 0.00 | 1.05 | 1.05 | 99 | 1014.4 |
| 20260506150809 | 59 | 93 | 3.0 | 3.0 | 0.07 | 1.05 | 1.05 | 99 | 1014.4 |
| 20260506150306 | 59 | 143 | 2.0 | 2.0 | 0.42 | 1.05 | 1.05 | 99 | 1014.0 |
| 20260506145803 | 59 | 149 | 1.0 | 1.0 | 2.69 | 1.04 | 1.04 | 98 | 1014.1 |
| 20260506145259 | 59 | 124 | 3.0 | 5.0 | 4.21 | 1.01 | 1.01 | 98 | 1014.3 |
| 20260506144757 | 61 | 39 | 4.0 | 6.0 | 2.93 | 0.65 | 0.65 | 97 | 1014.2 |
| 20260506144254 | 61 | 279 | 3.0 | 3.0 | 1.09 | 0.21 | 0.21 | 96 | 1016.4 |
| 20260506143751 | 61 | 162 | 2.0 | 2.0 | 0.38 | 0.08 | 0.08 | 95 | 1014.7 |
| 20260506143248 | 62 | 31 | 3.0 | 6.0 | 0.12 | 0.04 | 0.04 | 94 | 1013.5 |
| 20260506142747 | 62 | 44 | 2.0 | 3.0 | 0.00 | 0.02 | 0.02 | 94 | 1011.2 |
| 20260506142245 | 62 | 57 | 3.0 | 3.0 | 0.00 | 0.02 | 0.02 | 93 | 1012.0 |
| 20260506141742 | 62 | 52 | 3.0 | 3.0 | 0.00 | 0.02 | 0.02 | 93 | 1012.8 |
| 20260506141241 | 63 | 95 | 2.0 | 2.0 | 0.00 | 0.02 | 0.02 | 93 | 1012.6 |
| 20260506140738 | 63 | 126 | 3.0 | 3.0 | 0.00 | 0.02 | 0.02 | 93 | 1012.7 |
| 20260506140235 | 64 | 72 | 3.0 | 3.0 | 0.00 | 0.02 | 0.02 | 93 | 1012.5 |
| 20260506135731 | 64 | 99 | 3.0 | 3.0 | 0.00 | 0.02 | 0.02 | 94 | 1012.1 |
| 20260506135228 | 65 | 54 | 2.0 | 2.0 | 0.00 | 0.02 | 0.02 | 94 | 1012.2 |
| 20260506134725 | 66 | 43 | 2.0 | 3.0 | 0.00 | 0.02 | 0.02 | 95 | 1012.3 |
| 20260506134221 | 66 | 43 | 1.0 | 1.0 | 0.00 | 0.02 | 0.02 | 96 | 1011.5 |
| 20260506133718 | 67 | 64 | 2.0 | 2.0 | 0.00 | 0.02 | 0.02 | 97 | 1011.3 |
| 20260506133214 | 68 | 23 | 3.0 | 3.0 | 0.00 | 0.02 | 0.02 | 97 | 1011.0 |
| 20260506132712 | 69 | 78 | 1.0 | 1.0 | 0.00 | 0.02 | 0.02 | 97 | 1011.2 |
| 20260506132209 | 69 | 123 | 0.0 | 1.0 | 0.00 | 0.02 | 0.02 | 98 | 1010.7 |
| 20260506131707 | 71 | 112 | 0.0 | 1.0 | 0.00 | 0.02 | 0.02 | 98 | 1011.0 |
| 20260506131202 | 74 | 146 | 1.0 | 1.0 | 0.00 | 0.02 | 0.02 | 99 | 1011.0 |
| 20260506130659 | 74 | 152 | 0.0 | 1.0 | 0.00 | 0.02 | 0.02 | 99 | 1010.8 |
| 20260506130157 | 74 | 168 | 0.0 | 0.0 | 0.00 | 0.02 | 0.02 | 99 | 1010.7 |
| 20260506125655 | 74 | 160 | 0.0 | 0.0 | 0.00 | 0.02 | 0.02 | 99 | 1010.8 |
| 20260506125152 | 74 | 159 | 0.0 | 0.0 | 0.00 | 0.02 | 0.02 | 99 | 1010.8 |
| 20260506124650 | 74 | 162 | 0.0 | 0.0 | 0.00 | 0.02 | 0.02 | 99 | 1010.5 |
| 20260506124148 | 74 | 162 | 0.0 | 0.0 | 0.00 | 0.02 | 0.02 | 99 | 1010.5 |
| 20260506123645 | 74 | 160 | 0.0 | 0.0 | 0.00 | 0.02 | 0.02 | 99 | 1010.0 |
| 20260506123144 | 73 | 168 | 0.0 | 0.0 | 0.00 | 0.02 | 0.02 | 99 | 1010.3 |
| 20260506122640 | 73 | 162 | 0.0 | 0.0 | 0.00 | 0.02 | 0.02 | 99 | 1010.4 |
| 20260506122138 | 73 | 162 | 0.0 | 0.0 | 0.00 | 0.02 | 0.02 | 99 | 1010.4 |
| 20260506121635 | 73 | 165 | 0.0 | 0.0 | 0.00 | 0.02 | 0.02 | 99 | 1010.4 |
| 20260506121131 | 73 | 176 | 0.0 | 0.0 | 0.00 | 0.02 | 0.02 | 99 | 1010.7 |
| 20260506120630 | 73 | 176 | 0.0 | 0.0 | 0.00 | 0.02 | 0.02 | 99 | 1010.4 |
| 20260506120126 | 73 | 176 | 0.0 | 0.0 | 0.05 | 0.02 | 0.02 | 98 | 1010.3 |
| 20260506115625 | 74 | 176 | 0.0 | 0.0 | 0.12 | 0.02 | 0.02 | 98 | 1010.2 |
| 20260506115123 | 74 | 176 | 0.0 | 0.0 | 0.07 | 0.01 | 0.01 | 98 | 1010.4 |
| 20260506114620 | 74 | 176 | 0.0 | 0.0 | 0.00 | 0.00 | 0.00 | 98 | 1010.2 |
| 20260506114118 | 74 | 176 | 0.0 | 0.0 | 0.00 | 0.00 | 0.00 | 98 | 1010.2 |
| 20260506113616 | 74 | 176 | 0.0 | 0.0 | 0.00 | 0.00 | 0.00 | 98 | 1010.3 |
| 20260506113113 | 74 | 177 | 0.0 | 0.0 | 0.00 | 0.00 | 0.00 | 97 | 1010.1 |
| 20260506112609 | 74 | 176 | 0.0 | 0.0 | 0.00 | 0.00 | 0.00 | 97 | 1010.4 |
| 20260506112107 | 74 | 176 | 0.0 | 0.0 | 0.00 | 0.00 | 0.00 | 97 | 1010.2 |
| 20260506111604 | 74 | 176 | 0.0 | 0.0 | 0.00 | 0.00 | 0.00 | 97 | 1010.4 |
| 20260506111101 | 74 | 177 | 0.0 | 0.0 | 0.00 | 0.00 | 0.00 | 97 | 1010.2 |
| 20260506110559 | 74 | 177 | 0.0 | 0.0 | 0.00 | 0.00 | 0.00 | 97 | 1010.2 |
| 20260506110056 | 74 | 176 | 0.0 | 0.0 | 0.00 | 0.00 | 0.00 | 97 | 1010.3 |
| 20260506105552 | 74 | 177 | 0.0 | 0.0 | 0.00 | 0.00 | 0.00 | 96 | 1010.4 |
| 20260506105050 | 74 | 173 | 0.0 | 0.0 | 0.00 | 0.00 | 0.00 | 96 | 1010.3 |
| 20260506104548 | 74 | 173 | 0.0 | 0.0 | 0.00 | 0.00 | 0.00 | 96 | 1010.4 |
| 20260506104045 | 74 | 181 | 0.0 | 0.0 | 0.00 | 0.00 | 0.00 | 95 | 1010.3 |
| 20260506103542 | 74 | 176 | 0.0 | 0.0 | 0.00 | 0.00 | 0.00 | 95 | 1010.3 |
| 20260506103039 | 74 | 175 | 0.0 | 0.0 | 0.00 | 0.00 | 0.00 | 95 | 1010.2 |
| 20260506102537 | 75 | 179 | 0.0 | 0.0 | 0.00 | 0.00 | 0.00 | 94 | 1010.2 |
| 20260506102034 | 75 | 182 | 0.0 | 0.0 | 0.00 | 0.00 | 0.00 | 94 | 1010.0 |
| 20260506101531 | 75 | 189 | 0.0 | 0.0 | 0.00 | 0.00 | 0.00 | 93 | 1010.1 |
| 20260506101028 | 75 | 165 | 0.0 | 1.0 | 0.00 | 0.00 | 0.00 | 93 | 1010.0 |
| 20260506100526 | 75 | 187 | 0.0 | 0.0 | 0.00 | 0.00 | 0.00 | 93 | 1010.1 |
| 20260506100024 | 75 | 187 | 0.0 | 0.0 | 0.00 | 0.00 | 0.00 | 93 | 1009.8 |
| 20260506095523 | 75 | 186 | 0.0 | 1.0 | 0.00 | 0.00 | 0.00 | 93 | 1009.7 |
| 20260506095018 | 75 | 243 | 0.0 | 2.0 | 0.00 | 0.00 | 0.00 | 93 | 1009.7 |
| 20260506094516 | 75 | 179 | 0.0 | 0.0 | 0.00 | 0.00 | 0.00 | 93 | 1009.5 |
| 20260506094014 | 75 | 165 | 0.0 | 0.0 | 0.00 | 0.00 | 0.00 | 93 | 1009.6 |
| 20260506093512 | 75 | 171 | 0.0 | 0.0 | 0.00 | 0.00 | 0.00 | 93 | 1009.5 |
| 20260506093009 | 75 | 179 | 0.0 | 0.0 | 0.00 | 0.00 | 0.00 | 93 | 1009.5 |
| 20260506092507 | 75 | 177 | 0.0 | 0.0 | 0.00 | 0.00 | 0.00 | 92 | 1009.8 |
| 20260506092003 | 76 | 176 | 0.0 | 0.0 | 0.00 | 0.00 | 0.00 | 92 | 1009.3 |
| 20260506091502 | 76 | 176 | 0.0 | 0.0 | 0.00 | 0.00 | 0.00 | 92 | 1009.4 |
| 20260506090958 | 76 | 182 | 0.0 | 0.0 | 0.00 | 0.00 | 0.00 | 91 | 1009.4 |
| 20260506090457 | 76 | 173 | 0.0 | 0.0 | 0.00 | 0.00 | 0.00 | 91 | 1009.2 |
| 20260506085952 | 76 | 169 | 0.0 | 0.0 | 0.00 | 0.00 | 0.00 | 91 | 1009.2 |
| 20260506085449 | 76 | 165 | 0.0 | 0.0 | 0.00 | 0.00 | 0.00 | 91 | 1009.0 |
| 20260506084946 | 76 | 174 | 0.0 | 0.0 | 0.00 | 0.00 | 0.00 | 91 | 1009.2 |
| 20260506084443 | 76 | 175 | 0.0 | 0.0 | 0.00 | 0.00 | 0.00 | 91 | 1009.3 |
| 20260506083939 | 76 | 168 | 0.0 | 0.0 | 0.00 | 0.00 | 0.00 | 91 | 1009.2 |
| 20260506083437 | 76 | 167 | 0.0 | 0.0 | 0.00 | 0.00 | 0.00 | 91 | 1009.5 |
| 20260506082933 | 76 | 171 | 0.0 | 0.0 | 0.00 | 0.00 | 0.00 | 91 | 1008.9 |
| 20260506082431 | 76 | 169 | 0.0 | 0.0 | 0.00 | 0.00 | 0.00 | 91 | 1008.9 |
| 20260506081926 | 76 | 177 | 1.0 | 2.0 | 0.00 | 0.00 | 0.00 | 90 | 1008.9 |
| 20260506081425 | 76 | 204 | 1.0 | 2.0 | 0.00 | 0.00 | 0.00 | 90 | 1009.0 |
| 20260506080921 | 76 | 165 | 0.0 | 0.0 | 0.00 | 0.00 | 0.00 | 91 | 1009.2 |
| 20260506080418 | 76 | 165 | 0.0 | 0.0 | 0.00 | 0.00 | 0.00 | 90 | 1009.0 |
| 20260506073402 | 76 | 227 | 3.0 | 5.0 | 0.00 | 0.00 | 0.00 | 90 | 1009.2 |
| 20260506072859 | 76 | 165 | 0.0 | 0.0 | 0.00 | 0.00 | 0.00 | 90 | 1009.4 |
| 20260506072357 | 76 | 148 | 1.0 | 1.0 | 0.00 | 0.00 | 0.00 | 90 | 1009.3 |
| 20260506071854 | 76 | 168 | 0.0 | 0.0 | 0.00 | 0.00 | 0.00 | 91 | 1009.3 |
| 20260506071352 | 76 | 142 | 0.0 | 0.0 | 0.00 | 0.00 | 0.00 | 91 | 1009.2 |
| 20260506070849 | 76 | 180 | 1.0 | 1.0 | 0.00 | 0.00 | 0.00 | 91 | 1009.4 |
| 20260506070346 | 76 | 167 | 0.0 | 1.0 | 0.00 | 0.00 | 0.00 | 91 | 1009.2 |
| 20260506062323 | 76 | 167 | 0.0 | 0.0 | 0.00 | 0.00 | 0.00 | 92 | 1009.0 |
| 20260506061819 | 76 | 158 | 0.0 | 1.0 | 0.00 | 0.00 | 0.00 | 92 | 1009.0 |
| 20260506061316 | 76 | 176 | 0.0 | 1.0 | 0.00 | 0.00 | 0.00 | 92 | 1009.0 |
| 20260506060814 | 76 | 170 | 0.0 | 1.0 | 0.00 | 0.00 | 0.00 | 92 | 1008.9 |
| 20260506060312 | 76 | 163 | 1.0 | 2.0 | 0.00 | 0.00 | 0.00 | 92 | 1008.8 |
| 20260506051243 | 76 | 171 | 0.0 | 1.0 | 0.00 | 0.00 | 0.00 | 90 | 1008.8 |
| 20260506050741 | 76 | 165 | 1.0 | 1.0 | 0.00 | 0.00 | 0.00 | 90 | 1008.8 |
| 20260506050238 | 76 | 157 | 3.0 | 3.0 | 0.00 | 0.00 | 0.00 | 89 | 1008.8 |
| 20260506044729 | 76 | 168 | 0.0 | 0.0 | 0.00 | 0.00 | 0.00 | 89 | 1009.0 |
| 20260506044227 | 76 | 187 | 0.0 | 1.0 | 0.00 | 0.00 | 0.00 | 89 | 1009.0 |
| 20260506043724 | 76 | 167 | 0.0 | 0.0 | 0.00 | 0.00 | 0.00 | 89 | 1008.8 |
| 20260506043221 | 76 | 161 | 0.0 | 0.0 | 0.00 | 0.00 | 0.00 | 88 | 1008.9 |
| 20260506042720 | 77 | 172 | 0.0 | 1.0 | 0.00 | 0.00 | 0.00 | 88 | 1008.8 |
| 20260506042218 | 77 | 170 | 0.0 | 1.0 | 0.00 | 0.00 | 0.00 | 88 | 1008.9 |
| 20260506041716 | 77 | 152 | 0.0 | 0.0 | 0.00 | 0.00 | 0.00 | 87 | 1008.7 |
| 20260506041213 | 77 | 139 | 1.0 | 2.0 | 0.00 | 0.00 | 0.00 | 87 | 1008.8 |
| 20260506040710 | 77 | 163 | 1.0 | 1.0 | 0.00 | 0.00 | 0.00 | 87 | 1008.8 |
| 20260506040207 | 77 | 170 | 0.0 | 0.0 | 0.00 | 0.00 | 0.00 | 87 | 1008.9 |
| 20260506035704 | 77 | 174 | 0.0 | 0.0 | 0.00 | 0.00 | 0.00 | 87 | 1008.8 |
| 20260506035201 | 77 | 168 | 0.0 | 0.0 | 0.00 | 0.00 | 0.00 | 87 | 1008.6 |
| 20260506034657 | 77 | 178 | 0.0 | 0.0 | 0.00 | 0.00 | 0.00 | 86 | 1008.9 |
| 20260506034155 | 77 | 162 | 0.0 | 0.0 | 0.00 | 0.00 | 0.00 | 86 | 1008.7 |
| 20260506033652 | 77 | 175 | 0.0 | 0.0 | 0.00 | 0.00 | 0.00 | 86 | 1008.6 |
| 20260506033149 | 77 | 189 | 0.0 | 1.0 | 0.00 | 0.00 | 0.00 | 85 | 1008.5 |
| 20260506032646 | 77 | 195 | 1.0 | 1.0 | 0.00 | 0.00 | 0.00 | 85 | 1008.7 |
| 20260506032143 | 77 | 172 | 0.0 | 1.0 | 0.00 | 0.00 | 0.00 | 85 | 1008.4 |
| 20260506031640 | 77 | 159 | 0.0 | 0.0 | 0.00 | 0.00 | 0.00 | 85 | 1008.3 |
| 20260506031136 | 77 | 164 | 0.0 | 0.0 | 0.00 | 0.00 | 0.00 | 85 | 1008.2 |
| 20260506030636 | 78 | 173 | 0.0 | 0.0 | 0.00 | 0.00 | 0.00 | 85 | 1008.1 |
| 20260506030132 | 78 | 174 | 0.0 | 0.0 | 0.00 | 0.00 | 0.00 | 84 | 1008.1 |
| 20260506025629 | 78 | 176 | 0.0 | 1.0 | 0.00 | 0.00 | 0.00 | 84 | 1008.1 |
| 20260506025125 | 78 | 170 | 0.0 | 1.0 | 0.00 | 0.00 | 0.00 | 84 | 1007.9 |
| 20260506024623 | 78 | 198 | 0.0 | 1.0 | 0.00 | 0.00 | 0.00 | 84 | 1007.8 |
| 20260506024118 | 78 | 187 | 0.0 | 1.0 | 0.00 | 0.00 | 0.00 | 84 | 1007.6 |
| 20260506023615 | 78 | 182 | 1.0 | 2.0 | 0.00 | 0.00 | 0.00 | 83 | 1007.6 |
| 20260506023112 | 78 | 160 | 0.0 | 0.0 | 0.00 | 0.00 | 0.00 | 83 | 1007.7 |
| 20260506022610 | 78 | 187 | 0.0 | 1.0 | 0.00 | 0.00 | 0.00 | 83 | 1007.7 |
| 20260506022107 | 78 | 162 | 0.0 | 0.0 | 0.00 | 0.00 | 0.00 | 83 | 1007.5 |
| 20260506021605 | 78 | 162 | 0.0 | 0.0 | 0.00 | 0.00 | 0.00 | 82 | 1007.3 |
| 20260506021101 | 79 | 154 | 0.0 | 0.0 | 0.00 | 0.00 | 0.00 | 81 | 1007.3 |
| 20260506020559 | 79 | 159 | 0.0 | 0.0 | 0.00 | 0.00 | 0.00 | 81 | 1007.3 |
| 20260506020056 | 79 | 164 | 0.0 | 0.0 | 0.00 | 0.00 | 0.00 | 81 | 1007.2 |
| 20260506015554 | 79 | 169 | 0.0 | 0.0 | 0.00 | 0.00 | 0.00 | 80 | 1007.1 |
| 20260506015050 | 80 | 165 | 0.0 | 0.0 | 0.00 | 0.00 | 0.00 | 80 | 1007.1 |
| 20260506014548 | 80 | 174 | 0.0 | 0.0 | 0.00 | 0.00 | 0.00 | 79 | 1007.1 |
| 20260506014043 | 80 | 179 | 0.0 | 0.0 | 0.00 | 0.00 | 0.00 | 79 | 1007.1 |
| 20260506013542 | 80 | 131 | 0.0 | 1.0 | 0.00 | 0.00 | 0.00 | 79 | 1006.8 |
| 20260506013038 | 80 | 164 | 0.0 | 1.0 | 0.00 | 0.00 | 0.00 | 78 | 1006.6 |
| 20260506012534 | 80 | 170 | 0.0 | 1.0 | 0.00 | 0.00 | 0.00 | 78 | 1006.7 |
| 20260506012031 | 81 | 168 | 0.0 | 0.0 | 0.00 | 0.00 | 0.00 | 78 | 1006.7 |
| 20260506011529 | 81 | 140 | 0.0 | 0.0 | 0.00 | 0.00 | 0.00 | 78 | 1006.5 |
| 20260506011025 | 81 | 169 | 0.0 | 0.0 | 0.00 | 0.00 | 0.00 | 77 | 1006.6 |
| 20260506010525 | 81 | 174 | 1.0 | 1.0 | 0.00 | 0.00 | 0.00 | 77 | 1006.4 |
| 20260506010021 | 82 | 175 | 0.0 | 0.0 | 0.00 | 0.00 | 0.00 | 77 | 1006.3 |
| 20260506005518 | 82 | 169 | 0.0 | 0.0 | 0.00 | 0.00 | 0.00 | 76 | 1006.4 |
| 20260506005013 | 82 | 101 | 1.0 | 2.0 | 0.00 | 0.00 | 0.00 | 76 | 1006.3 |
| 20260506004511 | 82 | 171 | 2.0 | 3.0 | 0.00 | 0.00 | 0.00 | 75 | 1006.3 |
| 20260506004008 | 83 | 162 | 0.0 | 1.0 | 0.00 | 0.00 | 0.00 | 75 | 1006.4 |
| 20260506003504 | 83 | 194 | 1.0 | 1.0 | 0.00 | 0.00 | 0.00 | 74 | 1006.3 |
| 20260506003000 | 83 | 164 | 1.0 | 2.0 | 0.00 | 0.00 | 0.00 | 74 | 1006.2 |
| 20260506002456 | 83 | 172 | 0.0 | 0.0 | 0.00 | 0.00 | 0.00 | 75 | 1006.4 |
| 20260506001951 | 84 | 177 | 1.0 | 1.0 | 0.00 | 0.00 | 0.00 | 72 | 1006.4 |
| 20260506001449 | 84 | 157 | 2.0 | 2.0 | 0.00 | 0.00 | 0.00 | 71 | 1006.4 |
| 20260506000946 | 85 | 165 | 1.0 | 1.0 | 0.00 | 0.00 | 0.00 | 71 | 1006.3 |
| 20260506000445 | 86 | 165 | 0.0 | 0.0 | 0.00 | 0.00 | 0.00 | 70 | 1006.3 |
| 20260505235940 | 86 | 175 | 1.0 | 1.0 | 0.00 | 0.00 | 0.00 | 66 | 1006.3 |
| 20260505235439 | 86 | 174 | 1.0 | 1.0 | 0.00 | 0.00 | 0.00 | 67 | 1006.2 |
| 20260505234935 | 86 | 201 | 0.0 | 1.0 | 0.00 | 0.00 | 0.00 | 67 | 1006.5 |
| 20260505234433 | 86 | 178 | 0.0 | 0.0 | 0.00 | 0.00 | 0.00 | 67 | 1006.3 |
| 20260505233929 | 86 | 206 | 1.0 | 2.0 | 0.00 | 0.00 | 0.00 | 66 | 1006.3 |
| 20260505233427 | 86 | 186 | 0.0 | 0.0 | 0.00 | 0.00 | 0.00 | 66 | 1006.4 |
| 20260505232924 | 86 | 204 | 2.0 | 2.0 | 0.00 | 0.00 | 0.00 | 66 | 1006.1 |